period_start,C,m1,H,J0,J1,J2,J3,J4,J5,JA,JB,JC,JD,JJ,JK,JN,#
2015-03-16 00:04:34,0.23,0.77,0.00,23.94,26.92,29.89,4.77,27.32,1006.39,2034.00,3144.23,3090.80,3344.17,349.94,343.08,4.21,0000 0000 0000 0000 000000
2015-03-16 00:09:36,0.19,0.78,0.00,23.89,26.92,29.88,4.70,27.15,1006.38,2034.00,3141.64,3088.93,3342.17,350.16,342.91,4.24,0000 0000 0000 0000 000000
2015-03-16 00:14:37,0.20,0.78,0.00,23.94,26.92,29.88,4.73,27.26,1006.38,2034.01,3139.23,3087.18,3340.25,349.95,343.12,4.27,0000 0000 0000 0000 000000
2015-03-16 00:19:38,0.19,0.79,0.00,23.95,26.93,29.86,4.72,27.23,1006.45,2034.00,3136.82,3085.50,3338.38,350.33,343.32,4.30,0000 0000 0000 0000 000000
2015-03-16 00:24:40,0.18,0.80,0.00,23.93,26.94,29.92,4.67,27.23,1006.74,2034.00,3134.71,3083.92,3336.64,349.78,342.95,4.33,0000 0000 0000 0000 000000
2015-03-16 00:29:41,0.17,0.80,0.00,23.94,26.95,29.90,4.75,27.05,1006.76,2034.00,3132.62,3082.41,3334.97,350.19,343.52,4.36,0000 0000 0000 0000 000000
2015-03-16 00:34:42,0.18,0.81,0.00,23.94,26.95,29.85,4.68,27.10,1006.45,2034.00,3130.42,3080.79,3333.29,349.89,342.93,4.39,0000 0000 0000 0000 000000
2015-03-16 00:39:44,0.17,0.81,0.00,23.96,26.95,29.88,4.67,27.07,1006.63,2034.00,3128.26,3079.30,3331.52,349.93,343.07,4.42,0000 0000 0000 0000 000000
2015-03-16 00:44:45,0.19,0.82,0.00,23.94,26.96,29.88,4.69,27.12,1006.79,2034.00,3126.10,3077.75,3329.79,349.74,342.94,4.45,0000 0000 0000 0000 000000
2015-03-16 00:49:46,0.16,0.82,0.00,23.92,26.97,29.91,4.69,27.02,1006.81,2034.00,3124.00,3076.27,3328.14,349.61,343.00,4.48,0000 0000 0000 0000 000000
2015-03-16 00:54:47,0.19,0.83,0.00,23.94,26.97,29.92,4.68,27.07,1006.51,2034.00,3121.94,3074.74,3326.61,349.83,342.90,4.51,0000 0000 0000 0000 000000
2015-03-16 00:59:48,0.16,0.83,0.00,23.97,26.97,29.95,4.67,27.04,1006.53,2033.99,3119.84,3073.35,3324.98,349.56,342.56,4.54,0000 0000 0000 0000 000000
2015-03-16 01:04:50,0.19,0.84,0.00,23.92,26.99,29.95,4.75,27.26,1006.46,2033.98,3117.56,3071.72,3323.28,349.92,343.04,4.57,0000 0000 0000 0000 000000
2015-03-16 01:09:51,0.16,0.84,0.00,23.90,27.00,29.97,4.76,27.29,1006.74,2033.97,3115.50,3070.39,3321.64,350.13,343.41,4.59,0000 0000 0000 0000 000000
2015-03-16 01:14:52,0.18,0.85,0.00,23.95,27.00,29.98,4.69,27.17,1006.85,2033.97,3113.44,3068.87,3319.99,349.92,343.28,4.62,0000 0000 0000 0000 000000
2015-03-16 01:19:54,0.16,0.85,0.00,23.96,27.01,29.96,4.73,27.11,1006.85,2033.95,3111.40,3067.51,3318.39,349.90,343.14,4.65,0000 0000 0000 0000 000000
2015-03-16 01:24:55,0.19,0.86,0.00,23.92,27.02,29.97,4.65,27.06,1006.83,2033.96,3109.28,3065.96,3316.70,349.95,343.25,4.68,0000 0000 0000 0000 000000
2015-03-16 01:29:56,0.15,0.86,0.00,23.94,27.02,30.00,4.70,27.19,1006.85,2033.86,3107.15,3064.49,3315.00,350.12,343.52,4.71,0000 0000 0000 0000 000000
2015-03-16 01:34:57,0.19,0.87,0.00,23.97,27.02,29.98,4.76,27.31,1006.64,2033.85,3104.96,3062.93,3313.31,350.38,343.48,4.74,0000 0000 0000 0000 000000
2015-03-16 01:39:59,0.16,0.87,0.00,23.94,27.03,29.97,4.72,27.18,1006.36,2033.78,3102.78,3061.38,3311.66,350.28,343.37,4.77,0000 0000 0000 0000 000000
2015-03-16 01:45:00,0.13,0.88,0.00,23.95,27.05,29.99,4.72,27.37,1006.36,2033.41,3100.51,3059.74,3309.85,349.77,342.85,4.80,0000 0000 0000 0000 000000
2015-03-16 01:50:01,0.17,0.88,0.00,23.93,27.05,29.99,4.71,27.22,1006.36,2033.38,3098.23,3058.17,3308.16,349.63,342.86,4.83,0000 0000 0000 0000 000000
2015-03-16 01:55:03,0.16,0.89,0.00,23.91,27.05,30.00,4.70,27.14,1006.52,2033.14,3096.00,3056.55,3306.39,349.96,343.24,4.86,0000 0000 0000 0000 000000
2015-03-16 02:00:04,0.18,0.89,0.00,23.97,27.06,30.02,4.73,27.20,1006.64,2033.11,3093.81,3054.99,3304.66,349.64,342.81,4.89,0000 0000 0000 0000 000000
2015-03-16 02:05:05,0.19,0.90,0.00,23.97,27.07,30.00,4.61,27.27,1006.38,2033.09,3091.54,3053.39,3302.79,349.20,342.27,4.92,0000 0000 0000 0000 000000
2015-03-16 02:10:06,0.19,0.90,0.00,23.97,27.07,30.02,4.72,27.36,1006.36,2033.08,3089.22,3051.72,3300.96,350.06,342.99,4.95,0000 0000 0000 0000 000000
2015-03-16 02:15:07,0.18,0.91,0.00,23.94,27.07,30.00,4.74,27.32,1006.17,2033.07,3087.04,3050.14,3299.26,350.09,343.24,4.98,0000 0000 0000 0000 000000
2015-03-16 02:20:09,0.19,0.92,0.00,23.98,27.07,29.99,4.78,27.35,1005.91,2033.04,3084.67,3048.46,3297.36,350.59,343.51,5.00,0000 0000 0000 0000 000000
2015-03-16 02:25:10,0.21,0.92,0.00,23.96,27.07,29.98,4.60,27.27,1005.93,2033.05,3082.35,3046.73,3295.56,349.25,342.25,5.03,0000 0000 0000 0000 000000
2015-03-16 02:30:11,0.18,0.93,0.00,23.94,27.08,29.99,4.74,27.32,1006.07,2033.03,3079.98,3045.12,3293.71,349.67,342.63,5.06,0000 0000 0000 0000 000000
2015-03-16 02:35:12,0.20,0.93,0.00,23.97,27.09,30.05,4.84,27.28,1006.35,2033.02,3077.68,3043.50,3291.91,350.56,343.65,5.09,0000 0000 0000 0000 000000
2015-03-16 02:40:13,0.20,0.94,0.00,23.93,27.10,30.04,4.67,27.09,1006.37,2033.01,3075.32,3041.77,3290.05,349.59,342.55,5.12,0000 0000 0000 0000 000000
2015-03-16 02:45:14,0.19,0.94,0.00,23.95,27.10,30.05,4.70,27.03,1006.36,2033.00,3072.99,3040.12,3288.21,349.83,342.90,5.15,0000 0000 0000 0000 000000
2015-03-16 02:50:15,0.20,0.95,0.00,23.98,27.10,30.03,4.71,27.27,1006.36,2033.00,3070.72,3038.36,3286.35,349.75,342.66,5.18,0000 0000 0000 0000 000000
2015-03-16 02:55:17,0.20,0.96,0.00,23.96,27.10,30.02,4.69,27.15,1006.36,2033.01,3068.41,3036.66,3284.54,349.77,342.56,5.21,0000 0000 0000 0000 000000
2015-03-16 03:00:18,0.20,0.96,0.00,23.95,27.10,30.01,4.78,27.13,1006.38,2033.00,3066.09,3035.06,3282.70,350.53,343.68,5.24,0000 0000 0000 0000 000000
2015-03-16 03:05:19,0.21,0.97,0.00,23.94,27.10,30.01,4.76,27.18,1006.38,2033.00,3063.64,3033.25,3280.76,350.24,343.43,5.27,0000 0000 0000 0000 000000
2015-03-16 03:10:20,0.20,0.97,0.00,23.97,27.10,30.05,4.72,27.16,1006.38,2033.00,3061.32,3031.65,3278.97,350.16,343.24,5.30,0000 0000 0000 0000 000000
2015-03-16 03:15:22,0.20,0.98,0.00,23.99,27.11,30.05,4.72,27.04,1006.38,2033.00,3058.96,3029.91,3277.11,350.44,343.30,5.33,0000 0000 0000 0000 000000
2015-03-16 03:20:23,0.20,0.99,0.00,24.00,27.12,30.02,4.77,27.04,1006.40,2033.00,3056.57,3028.20,3275.25,349.72,342.93,5.36,0000 0000 0000 0000 000000
2015-03-16 03:25:25,0.20,0.99,0.00,23.95,27.12,30.02,4.68,27.27,1006.39,2033.00,3054.31,3026.62,3273.51,350.03,343.01,5.39,0000 0000 0000 0000 000000
2015-03-16 03:30:26,0.22,1.00,0.00,24.00,27.12,30.02,4.72,27.20,1006.37,2033.00,3051.87,3024.82,3271.50,350.00,342.97,5.41,0000 0000 0000 0000 000000
2015-03-16 03:35:27,0.20,1.00,0.00,23.98,27.12,30.00,4.65,27.13,1006.36,2033.00,3049.42,3023.08,3269.60,349.60,342.76,5.44,0000 0000 0000 0000 000000
2015-03-16 03:40:28,0.20,1.01,0.00,24.00,27.12,30.02,4.78,27.19,1006.35,2033.00,3047.11,3021.40,3267.75,350.40,343.37,5.47,0000 0000 0000 0000 000000
2015-03-16 03:45:29,0.21,1.02,0.00,24.01,27.12,30.02,4.71,27.23,1006.26,2033.00,3044.60,3019.62,3265.80,349.34,342.33,5.50,0000 0000 0000 0000 000000
2015-03-16 03:50:30,0.22,1.02,0.00,24.00,27.12,29.84,4.70,27.32,1005.97,2033.00,3042.20,3017.83,3263.92,349.47,342.37,5.53,0000 0000 0000 0000 000000
2015-03-16 03:55:32,0.18,1.03,0.00,24.01,27.12,29.83,4.69,27.14,1006.19,2033.00,3039.76,3016.18,3262.27,350.08,343.15,5.56,0000 0000 0000 0000 000000
2015-03-16 04:00:33,0.22,1.04,0.00,24.02,27.12,29.96,4.74,27.15,1006.28,2033.00,3037.27,3014.43,3260.40,350.42,343.53,5.59,0000 0000 0000 0000 000000
2015-03-16 04:05:34,0.22,1.04,0.00,24.00,27.12,29.81,4.70,27.19,1006.28,2033.00,3034.77,3012.59,3258.42,349.73,342.73,5.62,0000 0000 0000 0000 000000
2015-03-16 04:10:36,0.19,1.05,0.00,24.01,27.11,29.90,4.70,27.31,1006.01,2033.00,3032.53,3010.92,3256.58,349.50,342.33,5.65,0000 0000 0000 0000 000000
2015-03-16 04:15:37,0.20,1.05,0.00,23.99,27.10,29.85,4.69,27.04,1006.00,2033.00,3030.14,3009.25,3254.73,350.43,343.17,5.68,0000 0000 0000 0000 000000
2015-03-16 04:20:38,0.21,1.06,0.00,24.05,27.10,29.83,4.68,27.25,1006.11,2033.00,3027.68,3007.55,3252.77,349.52,342.65,5.71,0000 0000 0000 0000 000000
2015-03-16 04:25:39,0.20,1.07,0.00,24.06,27.10,29.89,4.71,27.19,1006.04,2033.00,3025.28,3005.93,3250.88,350.41,343.34,5.74,0000 0000 0000 0000 000000
2015-03-16 04:30:40,0.21,1.07,0.00,24.03,27.10,29.78,4.66,26.93,1005.90,2033.00,3022.75,3004.14,3248.93,349.73,342.65,5.77,0000 0000 0000 0000 000000
2015-03-16 04:35:42,0.22,1.08,0.00,24.05,27.10,29.90,4.78,27.30,1005.87,2033.00,3020.23,3002.37,3247.02,349.91,342.80,5.80,0000 0000 0000 0000 000000
2015-03-16 04:40:43,0.23,1.09,0.00,24.07,27.10,29.92,4.70,27.18,1005.87,2033.00,3017.64,3000.55,3244.95,349.96,342.66,5.82,0000 0000 0000 0000 000000
2015-03-16 04:45:44,0.22,1.09,0.00,24.07,27.10,29.97,4.65,27.13,1005.87,2033.00,3015.13,2998.73,3242.98,349.53,342.31,5.85,0000 0000 0000 0000 000000
2015-03-16 04:50:45,0.23,1.10,0.00,23.98,27.10,29.84,4.73,27.18,1005.86,2033.00,3012.50,2996.80,3240.95,350.04,342.96,5.88,0000 0000 0000 0000 000000
2015-03-16 04:55:47,0.23,1.11,0.00,23.98,27.09,29.78,4.70,27.23,1005.65,2033.00,3009.89,2994.96,3238.94,349.64,342.54,5.91,0000 0000 0000 0000 000000
2015-03-16 05:00:48,0.21,1.11,0.00,24.00,27.08,29.95,4.72,27.33,1005.40,2033.00,3007.38,2993.10,3236.91,350.19,342.66,5.94,0000 0000 0000 0000 000000
2015-03-16 05:05:49,0.24,1.12,0.00,23.89,27.07,29.81,4.66,27.41,1005.39,2033.00,3004.70,2991.24,3234.92,349.60,342.55,5.97,0000 0000 0000 0000 000000
2015-03-16 05:10:50,0.22,1.13,0.00,23.96,27.07,29.86,4.68,27.31,1005.35,2033.01,3002.10,2989.36,3232.91,349.34,342.02,6.00,0000 0000 0000 0000 000000
2015-03-16 05:15:52,0.23,1.13,0.00,24.01,27.07,29.97,4.67,27.70,1004.94,2033.01,2999.47,2987.41,3230.76,349.75,342.20,6.03,0000 0000 0000 0000 000000
2015-03-16 05:20:53,0.24,1.14,0.00,23.93,27.07,29.95,4.69,27.83,1004.90,2033.00,2996.64,2985.33,3228.50,350.10,342.70,6.06,0000 0000 0000 0000 000000
2015-03-16 05:25:55,0.23,1.15,0.00,23.95,27.07,29.80,4.66,27.63,1004.92,2033.01,2993.94,2983.40,3226.36,350.04,342.60,6.09,0000 0000 0000 0000 000000
2015-03-16 05:30:56,0.23,1.15,0.00,24.00,27.07,29.87,4.70,27.62,1005.26,2033.02,2991.30,2981.52,3224.32,350.13,342.83,6.12,0000 0000 0000 0000 000000
2015-03-16 05:35:58,0.24,1.16,0.00,24.03,27.07,29.95,4.66,27.49,1005.39,2033.02,2988.60,2979.59,3222.19,350.09,342.98,6.15,0000 0000 0000 0000 000000
2015-03-16 05:40:59,0.25,1.17,0.00,24.02,27.07,29.93,4.67,27.58,1005.39,2033.06,2985.94,2977.62,3220.07,349.84,342.52,6.18,0000 0000 0000 0000 000000
2015-03-16 05:46:01,0.22,1.18,0.00,24.04,27.07,29.95,4.67,27.62,1005.07,2033.02,2983.35,2975.72,3217.97,350.09,342.66,6.21,0000 0000 0000 0000 000000
2015-03-16 05:51:02,0.23,1.18,0.00,24.03,27.07,29.94,4.77,27.72,1004.90,2033.06,2980.82,2973.85,3216.05,349.96,342.45,6.23,0000 0000 0000 0000 000000
2015-03-16 05:56:03,0.21,1.19,0.00,24.04,27.07,29.93,4.78,27.82,1004.90,2033.06,2978.31,2972.04,3214.07,350.62,343.01,6.26,0000 0000 0000 0000 000000
2015-03-16 06:01:05,0.22,1.20,0.00,24.01,27.07,29.95,4.78,27.88,1004.90,2033.03,2975.75,2970.17,3212.05,350.17,342.61,6.29,0000 0000 0000 0000 000000
2015-03-16 06:06:06,0.24,1.20,0.00,23.98,27.07,29.96,4.73,27.88,1004.90,2033.02,2973.09,2968.26,3209.96,350.37,342.97,6.32,0000 0000 0000 0000 000000
2015-03-16 06:11:07,0.21,1.21,0.00,24.01,27.07,29.95,4.69,27.89,1004.94,2033.03,2970.74,2966.54,3208.06,349.74,342.50,6.35,0000 0000 0000 0000 000000
2015-03-16 06:16:08,0.23,1.22,0.00,23.99,27.07,29.97,4.79,27.82,1005.22,2033.02,2968.19,2964.66,3206.02,350.77,343.49,6.38,0000 0000 0000 0000 000000
2015-03-16 06:21:10,0.23,1.22,0.00,23.98,27.07,30.00,4.76,27.60,1005.38,2033.01,2965.62,2962.76,3203.95,350.30,343.00,6.41,0000 0000 0000 0000 000000
2015-03-16 06:26:11,0.22,1.23,0.00,23.99,27.07,30.00,4.73,27.40,1005.40,2033.00,2963.08,2960.95,3201.96,349.91,342.37,6.44,0000 0000 0000 0000 000000
2015-03-16 06:31:13,0.21,1.24,0.00,24.02,27.07,29.94,4.62,27.42,1005.47,2033.01,2960.62,2959.20,3199.96,349.77,342.57,6.47,0000 0000 0000 0000 000000
2015-03-16 06:36:14,0.22,1.24,0.00,23.97,27.07,30.00,4.71,27.43,1005.59,2033.00,2958.17,2957.39,3198.19,349.74,342.54,6.50,0000 0000 0000 0000 000000
2015-03-16 06:41:15,0.22,1.25,0.00,23.94,27.07,30.01,4.71,27.52,1005.43,2033.00,2955.65,2955.55,3196.20,349.89,342.58,6.53,0000 0000 0000 0000 000000
2015-03-16 06:46:17,0.23,1.26,0.00,24.00,27.07,30.00,4.64,27.52,1005.39,2033.01,2953.11,2953.70,3194.16,349.26,341.83,6.56,0000 0000 0000 0000 000000
2015-03-16 06:51:18,0.22,1.26,0.00,23.97,27.07,29.95,4.77,27.51,1005.34,2033.00,2950.63,2951.91,3192.23,350.25,343.04,6.59,0000 0000 0000 0000 000000
2015-03-16 06:56:19,0.21,1.27,0.00,23.85,27.07,30.00,4.77,27.64,1005.13,2033.01,2948.27,2950.20,3190.32,350.43,343.20,6.62,0000 0000 0000 0000 000000
2015-03-16 07:01:20,0.22,1.28,0.00,23.74,27.07,30.01,4.74,27.57,1005.13,2033.01,2945.74,2948.43,3188.33,350.68,343.63,6.64,0000 0000 0000 0000 000000
2015-03-16 07:06:22,0.25,1.28,0.00,23.83,27.08,30.01,4.66,27.82,1005.08,2033.00,2943.13,2946.53,3186.26,349.90,342.73,6.67,0000 0000 0000 0000 000000
2015-03-16 07:11:23,0.22,1.29,0.00,23.86,27.10,30.03,4.67,27.57,1005.20,2033.00,2940.78,2944.68,3184.26,349.65,342.50,6.70,0000 0000 0000 0000 000000
2015-03-16 07:16:24,0.23,1.30,0.00,23.89,27.10,30.05,4.65,27.64,1005.36,2033.00,2938.27,2942.92,3182.23,348.92,341.75,6.73,0000 0000 0000 0000 000000
2015-03-16 07:21:25,0.23,1.30,0.00,23.87,27.11,30.06,4.69,27.70,1005.39,2033.00,2935.80,2941.03,3180.18,349.82,342.67,6.76,0000 0000 0000 0000 000000
2015-03-16 07:26:26,0.22,1.31,0.00,23.88,27.12,30.09,4.73,27.63,1005.38,2032.98,2933.25,2939.23,3178.19,349.78,342.74,6.79,0000 0000 0000 0000 000000
2015-03-16 07:31:27,0.23,1.32,0.00,23.92,27.13,30.11,4.73,27.62,1005.37,2032.98,2930.73,2937.32,3176.16,350.45,343.24,6.82,0000 0000 0000 0000 000000
2015-03-16 07:36:29,0.22,1.32,0.00,23.97,27.15,30.12,4.67,27.43,1005.34,2032.98,2928.26,2935.56,3174.19,349.62,342.47,6.85,0000 0000 0000 0000 000000
2015-03-16 07:41:30,0.22,1.33,0.00,23.97,27.16,30.15,4.75,27.54,1005.34,2032.97,2925.88,2933.75,3172.30,350.69,343.34,6.88,0000 0000 0000 0000 000000
2015-03-16 07:46:32,0.21,1.34,0.00,23.93,27.17,30.16,4.71,27.52,1005.38,2032.93,2923.47,2932.02,3170.36,349.98,342.47,6.91,0000 0000 0000 0000 000000
2015-03-16 07:51:33,0.18,1.34,0.00,23.93,27.18,30.15,4.65,27.38,1005.39,2032.84,2921.19,2930.36,3168.51,350.17,342.85,6.94,0000 0000 0000 0000 000000
2015-03-16 07:56:35,0.19,1.35,0.00,23.94,27.20,30.18,4.71,27.48,1005.39,2032.69,2918.90,2928.67,3166.65,349.84,342.80,6.97,0000 0000 0000 0000 000000
2015-03-16 08:01:36,0.19,1.35,0.00,23.96,27.20,30.18,4.68,27.45,1005.39,2032.67,2916.75,2927.15,3164.93,349.54,342.29,7.00,0000 0000 0000 0000 000000
2015-03-16 08:06:37,0.14,1.36,0.00,23.96,27.21,30.16,4.67,27.52,1005.39,2032.28,2914.40,2925.47,3163.05,349.86,342.46,7.03,0000 0000 0000 0000 000000
2015-03-16 08:11:38,0.19,1.36,0.00,23.99,27.22,30.18,4.74,27.45,1005.39,2032.24,2912.32,2923.88,3161.35,350.47,343.40,7.06,0000 0000 0000 0000 000000
2015-03-16 08:16:40,0.18,1.37,0.00,23.98,27.22,30.18,4.61,27.43,1005.39,2032.10,2910.02,2922.24,3159.54,349.39,342.11,7.08,0000 0000 0000 0000 000000
2015-03-16 08:21:41,0.21,1.37,0.00,23.95,27.22,30.19,4.76,27.44,1005.39,2032.06,2907.86,2920.71,3157.82,350.62,343.45,7.11,0000 0000 0000 0000 000000
2015-03-16 08:26:42,0.18,1.38,0.00,23.94,27.24,30.19,4.72,27.42,1005.39,2032.05,2905.69,2919.16,3156.13,349.90,342.74,7.14,0000 0000 0000 0000 000000
2015-03-16 08:31:43,0.20,1.39,0.00,23.93,27.25,30.18,4.70,27.43,1005.39,2032.02,2903.52,2917.57,3154.35,349.28,341.98,7.17,0000 0000 0000 0000 000000
2015-03-16 08:36:44,0.20,1.39,0.00,23.97,27.25,30.19,4.62,27.43,1005.31,2032.01,2901.30,2915.95,3152.58,349.85,342.61,7.20,0000 0000 0000 0000 000000
2015-03-16 08:41:46,0.20,1.40,0.00,23.96,27.25,30.20,4.70,27.40,1005.35,2032.01,2899.11,2914.42,3150.81,349.77,342.67,7.23,0000 0000 0000 0000 000000
2015-03-16 08:46:47,0.22,1.40,0.00,23.98,27.25,30.20,4.77,27.46,1005.39,2032.00,2896.84,2912.71,3149.02,350.33,342.98,7.26,0000 0000 0000 0000 000000
2015-03-16 08:51:48,0.20,1.41,0.00,23.97,27.26,30.22,4.75,27.37,1005.40,2032.00,2894.59,2911.07,3147.22,350.22,342.91,7.29,0000 0000 0000 0000 000000
2015-03-16 08:56:50,0.20,1.42,0.00,23.95,27.27,30.21,4.63,27.22,1005.41,2032.00,2892.42,2909.46,3145.48,349.19,342.05,7.32,0000 0000 0000 0000 000000
2015-03-16 09:01:51,0.21,1.42,0.00,23.93,27.27,30.22,4.74,27.20,1005.41,2032.00,2890.28,2907.87,3143.71,349.64,342.49,7.35,0000 0000 0000 0000 000000
2015-03-16 09:06:53,0.20,1.43,0.00,23.94,27.27,30.22,4.69,27.39,1005.39,2032.00,2887.94,2906.27,3141.92,350.00,342.78,7.38,0000 0000 0000 0000 000000
2015-03-16 09:11:54,0.20,1.43,0.00,23.96,27.27,30.22,4.72,27.48,1005.29,2032.00,2885.82,2904.70,3140.27,349.71,342.41,7.41,0000 0000 0000 0000 000000
2015-03-16 09:16:55,0.19,1.44,0.00,23.99,27.28,30.21,4.68,27.47,1004.92,2032.00,2883.59,2903.17,3138.57,349.77,342.28,7.44,0000 0000 0000 0000 000000
2015-03-16 09:21:57,0.21,1.45,0.00,23.96,27.29,30.23,4.75,27.45,1004.90,2032.00,2881.37,2901.55,3136.75,349.73,342.46,7.47,0000 0000 0000 0000 000000
2015-03-16 09:26:58,0.19,1.45,0.00,23.96,27.30,30.24,4.69,27.38,1004.91,2032.00,2879.23,2899.92,3135.12,350.02,342.63,7.49,0000 0000 0000 0000 000000
2015-03-16 09:31:59,0.19,1.46,0.00,23.99,27.30,30.22,4.65,27.29,1004.90,2032.00,2877.21,2898.40,3133.53,349.87,342.41,7.52,0000 0000 0000 0000 000000
2015-03-16 09:37:00,0.22,1.46,0.00,23.96,27.30,30.22,4.70,27.13,1004.93,2032.00,2875.04,2896.75,3131.76,349.80,342.40,7.55,0000 0000 0000 0000 000000
2015-03-16 09:42:02,0.19,1.47,0.00,23.95,27.30,30.22,4.71,27.22,1005.20,2032.00,2872.82,2895.22,3129.98,349.32,342.05,7.58,0000 0000 0000 0000 000000
2015-03-16 09:47:03,0.21,1.48,0.00,23.95,27.30,30.24,4.76,27.32,1005.35,2032.00,2870.61,2893.62,3128.31,350.39,343.10,7.61,0000 0000 0000 0000 000000
2015-03-16 09:52:04,0.21,1.48,0.00,23.95,27.30,30.23,4.69,27.34,1005.39,2032.00,2868.26,2891.92,3126.45,349.86,342.47,7.64,0000 0000 0000 0000 000000
2015-03-16 09:57:05,0.20,1.49,0.00,23.96,27.30,30.23,4.73,27.29,1005.39,2032.00,2866.08,2890.34,3124.67,349.63,342.68,7.67,0000 0000 0000 0000 000000
2015-03-16 10:02:07,0.22,1.50,0.00,23.97,27.30,30.23,4.73,27.30,1005.39,2032.00,2863.83,2888.69,3122.82,350.13,342.89,7.70,0000 0000 0000 0000 000000
2015-03-16 10:07:08,0.20,1.50,0.00,23.96,27.30,30.22,4.67,27.13,1005.39,2032.00,2861.62,2887.06,3121.01,349.46,342.20,7.73,0000 0000 0000 0000 000000
2015-03-16 10:12:10,0.20,1.51,0.00,23.99,27.30,30.23,4.78,27.25,1005.39,2032.00,2859.47,2885.49,3119.33,350.18,342.88,7.76,0000 0000 0000 0000 000000
2015-03-16 10:17:11,0.21,1.52,0.00,23.97,27.30,30.22,4.62,27.02,1005.39,2031.99,2857.25,2883.84,3117.56,349.17,341.96,7.79,0000 0000 0000 0000 000000
2015-03-16 10:22:12,0.21,1.52,0.00,23.97,27.30,30.24,4.78,27.37,1005.39,2031.99,2855.05,2882.26,3115.76,350.43,343.20,7.82,0000 0000 0000 0000 000000
2015-03-16 10:27:13,0.20,1.53,0.00,23.96,27.30,30.25,4.68,27.23,1005.39,2031.99,2852.81,2880.66,3113.96,349.97,342.64,7.85,0000 0000 0000 0000 000000
2015-03-16 10:32:14,0.19,1.53,0.00,23.96,27.30,30.25,4.70,27.15,1005.39,2031.98,2850.61,2879.15,3112.21,349.84,342.57,7.88,0000 0000 0000 0000 000000
2015-03-16 10:37:16,0.21,1.54,0.00,23.93,27.31,30.24,4.68,27.16,1005.39,2031.99,2848.44,2877.62,3110.45,349.80,342.62,7.90,0000 0000 0000 0000 000000
2015-03-16 10:42:17,0.19,1.55,0.00,23.95,27.32,30.25,4.74,27.29,1005.39,2031.96,2846.27,2876.03,3108.74,350.12,342.94,7.93,0000 0000 0000 0000 000000
2015-03-16 10:47:18,0.21,1.55,0.00,23.97,27.32,30.23,4.77,27.31,1005.39,2031.97,2844.10,2874.53,3107.06,350.09,342.93,7.96,0000 0000 0000 0000 000000
2015-03-16 10:52:20,0.21,1.56,0.00,23.95,27.32,30.24,4.69,27.24,1005.39,2031.97,2841.93,2872.90,3105.35,349.89,342.55,7.99,0000 0000 0000 0000 000000
2015-03-16 10:57:22,0.19,1.56,0.00,23.93,27.32,30.21,4.70,27.32,1005.39,2031.95,2839.75,2871.42,3103.62,349.90,342.75,8.02,0000 0000 0000 0000 000000
2015-03-16 11:02:23,0.21,1.57,0.00,23.92,27.32,30.20,4.71,27.18,1005.39,2031.96,2837.59,2869.81,3101.91,349.51,342.18,8.05,0000 0000 0000 0000 000000
2015-03-16 11:07:24,0.18,1.58,0.00,23.93,27.31,30.23,4.79,27.41,1005.21,2031.91,2835.36,2868.27,3100.15,349.95,342.56,8.08,0000 0000 0000 0000 000000
2015-03-16 11:12:25,0.22,1.58,0.00,23.96,27.31,30.20,4.64,27.31,1004.94,2031.96,2833.27,2866.77,3098.57,349.27,342.02,8.11,0000 0000 0000 0000 000000
2015-03-16 11:17:27,0.20,1.59,0.00,23.98,27.31,30.22,4.69,27.23,1005.03,2031.96,2831.06,2865.12,3096.80,349.84,342.49,8.14,0000 0000 0000 0000 000000
2015-03-16 11:22:28,0.21,1.59,0.00,23.92,27.31,30.25,4.65,27.27,1005.16,2031.95,2829.01,2863.64,3095.08,349.90,342.75,8.17,0000 0000 0000 0000 000000
2015-03-16 11:27:29,0.19,1.60,0.00,23.92,27.31,30.23,4.78,27.28,1005.23,2031.95,2826.76,2862.08,3093.40,350.20,342.92,8.20,0000 0000 0000 0000 000000
2015-03-16 11:32:31,0.20,1.61,0.00,23.91,27.30,30.23,4.73,27.18,1005.04,2031.93,2824.55,2860.51,3091.69,350.52,343.19,8.23,0000 0000 0000 0000 000000
2015-03-16 11:37:32,0.22,1.61,0.00,23.90,27.30,30.24,4.67,27.13,1004.99,2031.92,2822.33,2858.85,3089.91,349.21,342.03,8.26,0000 0000 0000 0000 000000
2015-03-16 11:42:33,0.20,1.62,0.00,23.93,27.30,30.24,4.65,27.16,1005.00,2031.95,2820.14,2857.30,3088.22,349.84,342.55,8.29,0000 0000 0000 0000 000000
2015-03-16 11:47:34,0.22,1.62,0.00,23.95,27.30,30.22,4.78,27.36,1004.90,2031.96,2817.91,2855.70,3086.53,350.23,342.81,8.31,0000 0000 0000 0000 000000
2015-03-16 11:52:35,0.19,1.63,0.00,23.92,27.30,30.21,4.68,27.23,1004.90,2031.96,2815.77,2854.14,3084.71,349.75,342.37,8.34,0000 0000 0000 0000 000000
2015-03-16 11:57:36,0.21,1.64,0.00,23.89,27.31,30.22,4.74,27.35,1004.90,2031.93,2813.64,2852.51,3082.87,350.19,343.01,8.37,0000 0000 0000 0000 000000
2015-03-16 12:02:38,0.21,1.64,0.00,23.91,27.31,30.20,4.65,27.23,1004.79,2031.96,2811.43,2850.93,3081.18,349.55,342.20,8.40,0000 0000 0000 0000 000000
2015-03-16 12:07:39,0.19,1.65,0.00,23.90,27.30,30.23,4.72,27.38,1004.52,2031.83,2809.17,2849.25,3079.33,350.13,342.63,8.43,0000 0000 0000 0000 000000
2015-03-16 12:12:40,0.24,1.66,0.00,23.91,27.30,30.24,4.77,27.28,1004.45,2031.91,2807.14,2847.72,3077.63,350.27,342.74,8.46,0000 0000 0000 0000 000000
2015-03-16 12:17:41,0.20,1.66,0.00,23.92,27.30,30.24,4.66,27.23,1004.46,2031.93,2805.00,2846.14,3075.96,349.82,342.19,8.49,0000 0000 0000 0000 000000
2015-03-16 12:22:42,0.21,1.67,0.00,23.93,27.30,30.23,4.65,27.32,1004.44,2031.89,2802.64,2844.51,3074.13,349.61,342.14,8.52,0000 0000 0000 0000 000000
2015-03-16 12:27:44,0.21,1.67,0.00,23.91,27.30,30.22,4.67,27.28,1004.41,2031.95,2800.47,2842.94,3072.45,349.50,341.98,8.55,0000 0000 0000 0000 000000
2015-03-16 12:32:45,0.20,1.68,0.00,23.90,27.30,30.22,4.68,27.26,1004.41,2031.84,2798.11,2841.21,3070.67,349.74,342.20,8.58,0000 0000 0000 0000 000000
2015-03-16 12:37:46,0.22,1.69,0.00,23.88,27.30,30.23,4.80,27.38,1004.41,2031.76,2795.72,2839.53,3068.84,350.37,343.14,8.61,0000 0000 0000 0000 000000
2015-03-16 12:42:48,0.23,1.69,0.00,23.89,27.30,30.25,4.68,27.22,1004.36,2031.88,2793.47,2837.86,3067.08,349.80,342.35,8.64,0000 0000 0000 0000 000000
2015-03-16 12:47:49,0.20,1.70,0.00,23.89,27.30,30.22,4.70,27.34,1004.35,2031.81,2791.18,2836.20,3065.27,349.84,342.28,8.67,0000 0000 0000 0000 000000
2015-03-16 12:52:50,0.19,1.71,0.00,23.94,27.30,30.23,4.72,27.37,1004.36,2031.64,2788.79,2834.53,3063.47,349.48,341.85,8.70,0000 0000 0000 0000 000000
2015-03-16 12:57:52,0.25,1.71,0.00,23.90,27.30,30.22,4.79,27.38,1004.26,2031.72,2786.54,2832.82,3061.60,350.26,342.69,8.72,0000 0000 0000 0000 000000
2015-03-16 13:02:53,0.19,1.72,0.00,23.87,27.30,30.21,4.70,27.19,1004.17,2031.66,2784.39,2831.22,3059.77,350.30,342.76,8.75,0000 0000 0000 0000 000000
2015-03-16 13:07:55,0.18,1.72,0.00,23.89,27.30,30.25,4.73,27.29,1004.06,2031.25,2781.97,2829.50,3057.85,350.23,342.53,8.78,0000 0000 0000 0000 000000